Orbital elements:
    C/2001 A2-B (LINEAR)
Epoch 2001 May 11.0 TT = JDT 2452040.5
T 2001 May 24.52049 TT                                  Marsden
q   0.7790302            (2000.0)            P               Q
z  +0.0008221      Peri.  295.32814     -0.47639461     +0.69523830
 +/-0.0000043      Node   295.12562     -0.42476443     -0.71797069
e   0.9993596      Incl.   36.47562     -0.76982034     -0.03408506
Residuals in seconds of arc
010103 699  0.9+  0.0     010215 106  0.6+  0.1+    010404 402  0.1-  0.1+
010103 699  1.5+  1.4+    010217 349  0.0   0.4-    010404 402  0.3-  0.1-
010103 704  0.9-  0.8-    010217 349  0.4+  0.2-    010404 402  0.2-  0.1+
010103 699  0.8+  1.4+    010217 349  0.7+  0.5-    010404 347  0.8+  0.2-
010103 704  0.6+  0.6-    010222 360  0.3-  0.4-    010404 347  0.4+  0.2-
010103 704  0.3+  1.6+    010222 360  0.4-  0.2-    010404 300  0.0   0.0
010103 699  1.2+  0.9+    010225 349  1.3+  1.7-    010404 300  0.1-  0.1-
010103 704  0.8+  0.4-    010225 349 (2.1+  2.0-)   010404 300  0.4-  0.5+
010103 704  0.5-  0.5+    010225 349  0.3+  2.0-    010404 300  0.2-  0.1+
010105 704  1.3-  1.5-    010226 322  1.5+  0.7-    010404 300  0.0   0.1+
010105 704  0.6-  0.2+    010226 322  0.1+  1.2-    010404 300  0.1-  0.2-
010105 704 (2.0-  0.1+)   010226 322  0.3-  1.5-    010404 300  0.2+  0.1-
010105 704  0.4+  0.1+    010227 461  1.1+  1.7-    010404 300  0.3-  0.4+
010105 704  0.0   1.0+    010227 461  1.0+  0.3-    010404 300  0.1+  0.0
010105 704  0.3-  0.5+    010227 461  0.8-  0.5+    010404 300  0.3-  0.1-
010105 704  1.6-  1.1+    010309 844  0.3-  0.6+    010404 347  0.2+  0.3+
010105 704  0.4-  0.0     010309 844 (2.4+  0.9-)   010405 428  0.3+  0.1-
010105 704  0.5-  0.1-    010313 360  0.5-  0.6-    010405 428  0.1+  0.1+
010106 704  0.5+  0.1+    010313 360  0.7-  0.6-    010405 428  0.1+  0.1+
010106 704  0.3+  0.7+    010313 322  0.1+  0.2-    010405 428  0.2+  0.2+
010106 704  0.1-  0.3+    010313 322  0.5-  0.1-    010405 300  0.1+  0.2-
010115 704  0.1-  0.2+    010314 921  1.6-  0.3+    010405 300  0.3+  0.0
010115 704  0.8-  0.1+    010314 952  1.5+  0.7+    010405 300  0.3+  0.1-
010115 704  0.7-  0.4+    010314 952  1.7+  1.3+    010405 300  0.2-  0.1-
010115 046  0.6-  0.0     010314 952  0.5+  0.4-    010405 300  0.0   0.2+
010115 046  1.0+  0.1-    010314 952  1.1+  0.2+    010405 300  0.2-  0.0
010115 046  0.2-  0.4-    010318 349  1.1-  0.9-    010405 300  0.5+  0.0
010115 046  0.3+  0.0     010318 349  0.4+  0.7-    010405 300  0.0   0.1-
010115 046  0.8-  0.2+    010318 349  1.2+  0.2+    010405 300  0.1-  0.2+
010115 046  0.1-  0.4-    010318 349  0.6+  0.2+    010405 300  0.4+  0.2+
010116 557  0.2-  0.0     010320 402  0.7-  0.8-    010406 428  0.1+  0.0
010116 557  0.4-  0.2-    010320 402  1.1-  0.5-    010406 428  0.0   0.1+
010116 557  0.4-  0.0     010320 402  0.3-  0.1-    010406 428  0.0   0.0
010116 557  0.8-  0.0     010322 642 (0.7-  6.8-)   010406 428  0.0   0.1-
010116 557  0.3-  0.4+    010322 642 (3.3+  2.9-)   010406 170  0.1+  1.0+
010116 557  0.4-  0.1-    010322 428  0.2+  0.7-    010406 170  0.0   0.7+
010116 557  0.5-  0.3-    010322 428  0.7-  0.2-    010407 428  0.3-  0.1+
010116 046  0.0   0.2+    010324 921 (2.8-  1.3-)   010407 428  0.2-  0.0
010116 151  0.7-  0.9-    010324 921 (3.5-  0.2-)   010407 300  0.4-  0.2-
010116 046  0.6-  0.9+    010324 921  0.3-  0.1+    010407 300  0.4-  0.2+
010116 046  0.4-  1.0+    010325 170 (2.7-  2.5-)   010407 300  0.4-  0.1+
010116 151  0.0   0.6-    010325 170 (2.5-  2.2-)   010407 300  0.5-  0.0
010116 046  0.6+  0.7+    010326 347  1.5+  0.2-    010407 300  0.3-  0.0
010116 046  0.3-  0.4-    010326 347  1.0-  0.4-    010407 300  0.4-  0.4-
010116 151  0.3+  0.8-    010326 347  0.0   0.8-    010407 300  0.5-  0.0
010116 151  0.6+  0.5-    010328 422  0.8-  0.3-    010407 300  0.2-  0.3+
010117 704  0.3-  0.3-    010328 422  0.6-  0.2-    010407 300  0.1-  0.2-
010117 704  0.4+  0.4+    010330 347  1.2-  0.8+    010408 349  0.0   0.2-
010117 704  0.2+  0.3+    010330 347  0.8-  0.9-    010408 349  0.3+  0.8-
010117 704  1.1+  0.0     010330 347  0.4-  0.6+    010408 349  0.5-  0.4-
010117 704  0.6-  0.1+    010330 347  0.3-  0.9+    010408 349  0.1+  0.2+
010117 704  0.3-  0.1+    010330 844  0.4-  0.9+    010410 844  0.2-  0.1+
010117 704  0.3+  0.3+    010330 844  0.6-  0.6+    010410 844  0.7-  0.5+
010117 704  0.3-  0.1-    010330 844  0.3-  1.1+    010410 844  1.4-  0.3+
010117 704  0.4-  0.4+    010331 844  0.2+  1.1+    010412 170 (3.6+  1.2-)
010117 341  0.1+  0.3-    010331 557  0.6-  0.1-    010413 300  0.3-  0.4+
010117 341  0.2-  0.2+    010331 557  0.5-  0.0     010413 300  0.2-  0.3+
010117 341  0.6-  0.5-    010331 557  0.6-  0.0     010413 300  0.4-  0.3+
010117 903  0.5-  0.8-    010331 557  0.5-  0.0     010413 300  0.4-  0.3+
010117 903  0.1+  0.4-    010331 557  0.6-  0.1-    010413 300  0.4-  0.3+
010117 903  0.6+  1.0-    010331 952  0.4-  1.1+    010413 349  0.1-  0.3+
010117 348  0.9+  1.3-    010331 952  0.1-  0.3-    010413 349  0.3-  0.4+
010117 348  1.4+  0.4-    010331 952  0.2-  1.2-    010413 349  0.2+  0.0
010117 349  0.5-  0.2-    010331 952  0.9+  1.2-    010413 349  0.1+  0.4+
010117 349  1.2-  1.0+    010331 170  0.7-  0.9+    010413 341  0.1-  0.6+
010117 349  1.4-  1.1+    010331 046  0.3-  0.4+    010413 341  0.4-  0.6+
010118 704  0.8+  1.7+    010331 046  0.3-  0.3+    010413 341  0.2-  0.6+
010118 704  0.3-  0.2-    010331 046  0.3-  0.2+    010415 428  0.1-  0.0
010118 704  0.4-  0.3-    010331 046  0.1+  0.1+    010415 428  0.1+  0.1-
010118 704  0.3+  0.2+    010331 046  0.5-  0.1+    010415 422  0.3+  0.3+
010118 704  1.1-  0.5-    010331 941  1.2-  1.6-    010415 422  0.2+  0.0
010118 704  1.2+  0.5-    010401 713  0.4+  0.1+    010415 347  0.3+  0.2+
010118 704  0.2-  0.6+    010401 713  0.2+  0.3+    010415 347  0.2+  0.2+
010118 704  1.1+  0.5+    010401 713  0.6+  0.0     010415 347  0.2-  0.4+
010119 704  0.0   0.4+    010401 341  0.5-  0.1+    010415 367  1.0-  0.3+
010119 704  0.4-  0.1+    010401 349  0.1-  0.1+    010415 367  0.4-  0.1+
010119 704  0.4-  0.2+    010401 349  0.1-  0.2+    010415 367  0.1-  0.4-
010119 704  0.3-  0.2-    010401 349  0.0   0.3+    010415 367  0.2-  0.3+
010119 704  0.2+  0.2+    010401 341  0.4-  0.0     010415 367  0.0   0.3-
010119 704  0.9+  1.4+    010401 349  0.4-  0.1+    010415 620  1.1-  0.5+
010119 704  0.4+  1.7-    010401 347  0.3-  0.1+    010415 620  1.1-  0.5+
010119 704  0.8-  0.0     010401 341  0.5-  0.1+    010415 620  0.9-  0.6+
010119 704  1.2-  0.6+    010401 347  0.2+  0.3+    010415 620  0.6-  0.9+
010119 704  0.2-  0.4+    010401 347  0.3-  0.1-    010415 941  0.4+  1.8-
010119 704  1.2-  0.9-    010401 341  0.4-  0.0     010416 921  0.3+  0.7-
010119 704  1.3-  0.1+    010401 611  1.3+  1.1-    010416 921  0.4-  0.3-
010119 704  0.2-  0.9+    010401 611  0.3+  0.4+    010416 921  0.1+  0.3+
010119 704  0.0   1.8+    010401 557  0.5-  0.0     010416 921  0.3+  0.5-
010120 422  1.0+  0.6+    010401 557  0.4-  0.1+    010416 921 (3.1-  0.4+)
010120 422  1.7+  0.8+    010401 557  0.5-  0.0     010416 428  0.2+  0.3-
010120 372  1.8-  0.2-    010401 557  0.5-  0.1-    010416 300  0.1-  0.1+
010121 941 (3.8-  1.1-)   010401 557  0.3-  0.1-    010416 300  0.3-  0.4-
010121 349  0.8+  0.9+    010401 557  0.5-  0.2-    010416 300  0.2+  0.3-
010121 349  0.4+  0.3-    010401 557  0.4-  0.1-    010416 300  0.2-  0.1+
010121 349  1.5+  1.1+    010401 046  0.3-  0.3+    010418 428  0.1-  0.0
010121 372  1.4-  0.4-    010401 046  0.3-  0.2+    010418 428  0.1-  0.1-
010121 360  0.1+  0.3-    010401 046  0.5-  0.3+    010418 428  0.1-  0.0
010121 360  0.1+  0.3-    010401 170  1.0-  0.2-    010419 402  0.0   0.1-
010121 104 (2.1+  0.9+)   010401 106  0.5-  0.3+    010419 402  0.2-  0.3+
010121 104 (3.4+  1.2+)   010401 106  0.0   0.2+    010419 402  0.0   0.1+
010121 104 (2.5+  0.8+)   010402 636  0.2+  0.1+    010419 360  0.4-  0.3+
010124 900  0.4+  1.1-    010402 636  0.4+  0.7+    010419 360  0.3-  0.2+
010124 900  1.1+  1.6-    010402 621  0.2-  0.1+    010419 360  0.1-  0.0
010126 108 (0.6-  2.9-)   010402 621  0.0   0.1-    010419 322  1.0+  0.5-
010126 108  0.3-  0.9+    010402 621  0.5-  0.1+    010419 322  1.5+  0.3-
010126 108  0.0   0.6-    010402 621  0.1+  0.1+    010419 322  1.1+  0.2-
010127 046  0.0   0.1+    010402 621  0.2+  0.3+    010419 322  1.4+  0.3-
010127 046  0.4+  0.3+    010402 621  0.1-  0.3+    010419 322  1.4+  0.3-
010127 046  0.3-  0.9+    010402 621  0.2+  0.0     010419 322  1.3+  0.2-
010127 046  0.0   0.2+    010402 621  0.1+  0.4+    010422 347  0.9+  0.2-
010128 941 (3.9-  1.1-)   010402 621  0.1+  0.1+    010422 347  0.5+  0.4+
010129 372  0.4+  0.6+    010402 621  0.3+  0.4+    010422 349  0.7+  0.3+
010130 611  0.4-  0.4+    010402 636  0.5+  0.2+    010422 347  0.9+  0.4+
010130 611  0.3-  0.4-    010403 713  0.6+  0.3+    010422 349  0.5+  0.4+
010201 108 (2.8-  3.1-)   010403 713  0.8+  0.0     010422 349  0.5+  0.4+
010201 108  1.4-  0.3-    010403 713  0.7+  0.1-    010422 349  0.7+  0.3+
010201 108  0.3-  1.1+    010403 300  0.2-  0.0     010423 428  0.4+  0.0
010202 352  0.6+  0.5-    010403 300  0.6-  0.6+    010423 428  0.5+  0.0
010202 352  0.2-  0.4-    010403 300  0.4-  0.3+    010423 428  0.7+  0.1+
010202 352  0.2+  0.5-    010403 300  0.2+  0.0     010423 428  0.6+  0.0
010202 360  0.2+  0.4-    010403 300  0.5+  0.3-    010426 422  0.6+  0.1-
010202 360  0.9+  0.8-    010403 300  0.4+  0.2-    010426 422  0.7+  0.0
010202 360  0.0   0.1-    010403 300  0.6+  0.2-    010426 844  0.9+  0.2-
010202 118  1.0+  0.7+    010403 300  0.2+  0.2-    010426 844  1.0+  0.3+
010202 118  0.9+  0.8+    010403 300  0.4-  0.2+    010427 844  0.5+  0.5-
010208 046  0.3-  0.4-    010403 300  0.1+  0.0     010427 844  0.3-  0.5+
010208 046  0.0   0.2-    010403 300  0.9-  0.2+    010428 428  1.1+  0.0
010208 046  0.2+  0.1+    010403 300  0.0   0.1-    010428 428  0.7+  0.2-
010208 046  1.0+  0.4+    010403 300  0.3+  0.3-    010428 428  0.7+  0.1-
010210 201  0.0   0.3+    010403 300  0.6+  0.7-    010428 428  1.0+  0.1+
010210 201  0.5-  0.4-    010403 300  0.4+  0.5-    010430 693  1.1-  0.7+
010210 201  0.9+  0.1-    010403 300  0.2+  0.4-    010509 428  0.1+  0.2+
010211 349  1.5+  0.0     010403 300  0.6-  0.3+    010511 428  0.5-  0.2+
010211 349  0.3+  1.2-    010403 300  0.2+  0.4+    010512 428  0.0   0.2-
010211 349  1.0+  1.0-    010404 428  0.0   0.0     010512 428  0.1+  0.1+
010211 473 (3.8+  0.5-)   010404 341  0.3-  0.3+    010514 428  1.4-  0.4+
010211 201  0.1-  0.2-    010404 428  0.1-  0.0     010514 428  1.3-  0.3+
010211 473  0.3+  0.1+    010404 428  0.2+  0.1+    010516 428  1.1-  0.4+
010211 201  0.1+  0.2-    010404 341  0.4-  0.0     010517 422  0.1+  0.5-
010211 473 (2.1-  0.9-)   010404 428  0.1-  0.0     010517 422  0.1-  0.6-
010211 201  0.2+  0.1-    010404 349  0.1+  0.1+    010517 422  0.4+  0.8-
010213 127  0.6+  0.0     010404 349  0.1+  0.3+    010517 422  0.5+  0.6-
010213 127  0.3+  0.2-    010404 349  0.4+  0.1-    010517 422  0.4+  0.6-
010214 127  0.3-  0.7-    010404 341  0.3-  0.2+    010518 422  0.1-  0.7-
010214 127  0.5-  0.9-    010404 349  0.5+  0.1-    010518 422  0.2-  0.7-
010215 106  0.4-  0.7-    010404 341  0.1-  0.1+    010518 422  0.2-  0.3-
010215 106  0.7+  0.1-    010404 349  0.4+  0.1+

